Location: Unspecified
(35.6961°N, 0.0000°E)
Time: 18:05:20
(UTC+00:00)

Explorer 11/Cluster Stage 4 - Pass Details

Date: 28 May 2019
Orbit: 467 x 1260 km, 28.8° (Epoch: 24 June)

Event Time Altitude Azimuth Distance (km) Brightness Sun altitude
Rises 02:41:06 0° 254° (WSW) 3,674 - -21.0°
Reaches altitude 10° 02:44:10 10° 248° (WSW) 2,586 - -20.6°
Exits shadow 02:49:00 38° 203° (SSW) 1,194 7.0 -19.9°
Maximum altitude 02:49:50 40° 181° (S) 1,118 7.0 -19.8°
Drops below altitude 10° 02:54:26 10° 111° (ESE) 2,080 9.0 -19.2°
Sets 02:56:40 0° 104° (ESE) 2,881 9.9 -18.8°
